Preview of NWS' New Version of Forecast
This preview is not operational and should not be used for support decisions.

Regional Weather Roundup (RWR)

Issued by National Weather Service (NWS)

                            
000
ASUS43 KDMX 221701
RWRIA 

WEATHER ROUNDUP FOR IOWA
NATIONAL WEATHER SERVICE DES MOINES IA
1200 PM CDT SUN SEP 22 2019

NOTE: "FAIR" INDICATES FEW OR NO CLOUDS BELOW 12,000 FEET WITH NO
SIGNIFICANT WEATHER AND/OR OBSTRUCTIONS TO VISIBILITY.

* - THESE STATIONS ARE NOT NWS STATIONS...THUS NOT UNDER NWS
QUALITY CONTROL.  THEY ALSO DO NOT REPORT WEATHER SUCH 
AS PRECIPITATION OR FOG.  

IAZ001>003-012>014-020>022-031>034-043>046-221800-
   NORTHWEST IOWA
  
CITY           SKY/WX    TMP DP  RH WIND       PRES   REMARKS
CARROLL *      SUNNY     64  57  77 N3        29.88F                  
CHEROKEE *     PTSUNNY   64  59  84 NW6       29.92R                  
DENISON *      SUNNY     66  61  82 CALM      29.91S                  
LE MARS *      CLOUDY    64  61  88 NW14G21   29.93R                  
SIOUX CITY     PTSUNNY   66  58  75 NW15G23   29.93R                  
SPENCER        PTSUNNY   66  55  67 N3        29.90R                  
STORM LAKE *   SUNNY     63  57  82 CALM      29.87R                  
$$
 
IAZ055>058-069>071-079>083-090>094-221800-
   SOUTHWEST IOWA
  
CITY           SKY/WX    TMP DP  RH WIND       PRES   REMARKS
ATLANTIC *     CLOUDY    64  63  94 NE5       29.88F                  
AUDUBON *        N/A     64  57  77 N5        29.90F                  
CLARINDA *     MOSUNNY   70  68  94 CALM      29.89F                  
COUNCIL BLFS * CLOUDY    64  61  88 NE7       29.90R                  
CRESTON *      SUNNY     66  64  94 CALM      29.87F                  
HARLAN  *      CLOUDY    64  59  82 CALM      29.90F                  
LAMONI         LGT RAIN  66  64  93 E3        29.88F                  
RED OAK *      MOSUNNY   64  64 100 N13       29.89F                  
SHENANDOAH *   CLOUDY    64  64 100 N12       29.88S                  
$$
 
IAZ047>049-059>061-072>074-084-221800-
   CENTRAL IOWA
  
CITY           SKY/WX    TMP DP  RH WIND       PRES   REMARKS
AMES           LGT RAIN  63  60  90 N12G23    29.88F                  
ANKENY *       MOSUNNY   66  66 100 VRB5      29.87F                  
BOONE *        CLOUDY    64  64 100 NE15      29.85F                  
CHARITON *     MOSUNNY   66  66 100 MISG      29.85F                  
DES MOINES     LGT RAIN  66  64  93 S5        29.85F                  
GRINNELL*      HVY RAIN  65  64  98 W8        29.93R                  
KNOXVILLE *    LGT RAIN  64  64 100 SE5       29.87F                  
MARSHALLTOWN   LGT RAIN  66  66 100 SW7       29.89S                  
NEWTON *       MOSUNNY   66  66 100 CALM      29.89F FOG              
PELLA *        RAIN      65  64  95 W3        29.91F                  
PERRY *        CLOUDY    64  61  89 NE9       29.88R                  
$$
 
IAZ004>006-015-016-023>025-035-036-221800-
   NORTH CENTRAL IOWA
  
CITY           SKY/WX    TMP DP  RH WIND       PRES   REMARKS
ALGONA *       MOSUNNY   64  61  88 N7        29.85S                  
CLARION *      SUNNY     63  61  94 E6        29.87F                  
ESTHERVILLE    CLOUDY    61  57  87 N12       29.88R                  
FORT DODGE *   MOSUNNY   64  62  93 E9        29.86F                  
MASON CITY     LGT RAIN  64  59  83 CALM      29.88F                  
FOREST CITY *  DRIZZLE   64  59  82 NE3       29.86F                  
IOWA FALLS *   HVY RAIN  62  58  87 N7        29.89F                  
$$

IAZ007>011-017>019-026>030-037>042-050>054-066-221800-
   NORTHEAST IOWA
  
CITY           SKY/WX    TMP DP  RH WIND       PRES   REMARKS
CEDAR RAPIDS   HVY RAIN  66  66 100 W9        29.88R FOG              
CHARLES CITY * PTSUNNY   68  59  73 NW6       29.89S                  
CLINTON *      LGT RAIN  70  69  97 SW13      29.89S                  
DECORAH *      FAIR      66  64  94 W3        29.87R                  
DUBUQUE        LGT RAIN  67  66  97 W9        29.88S                  
MONTICELLO *   FAIR      68  68 100 SW7       29.88R                  
OELWEIN *      CLOUDY    68  68 100 N8        29.88R                  
WATERLOO       LGT RAIN  69  64  84 NW7       29.87R                  
$$
 
IAZ064-065-067-068-078-221800-
   EAST CENTRAL IOWA
  
CITY           SKY/WX    TMP DP  RH WIND       PRES   REMARKS
DAVENPORT      LGT RAIN  69  66  90 S9G18     29.90S                  
IOWA CITY      LGT RAIN  69  66  90 W8        29.90S                  
MUSCATINE *    PTSUNNY   70  68  94 SW10      29.91R                  
QUAD CITIES    LGT RAIN  71  67  87 SW6       29.88S                  
$$
 
IAZ062-063-075>077-085>089-095>099-221800-
   SOUTHEAST IOWA
  
CITY           SKY/WX    TMP DP  RH WIND       PRES   REMARKS
BURLINGTON     LGT RAIN  69  67  93 SE6       29.88F                  
FAIRFIELD *    PTSUNNY   66  66 100 S6G13     29.88F FOG              
FORT MADISON * LGT RAIN  68  68 100 SE3       29.89F                  
KEOKUK *       LGT RAIN  68  68 100 S7        29.90F                  
OSKALOOSA *    RAIN      66  64  95 SW3       29.89F                  
OTTUMWA        LGT RAIN  67  66  97 S7        29.88F                  
WASHINGTON *   LGT RAIN  68  68 100 S7G13     29.88R                  
$$

ABBREVIATIONS USED IN REMARKS
   TC - TEMPERATURES IN CELSIUS
  WCI - WIND CHILL INDEX
   HX - HEAT INDEX
  VSB - VISIBILITY  
$$